Location: Holbach
(51.5399°N, 10.6036°E)
Time: 09:24:56
(UTC+00:00)

ATLAS CENTAUR R/B - Pass Details

Date: 25 January 2021
Orbit: 471 x 674 km, 64.6° (Epoch: 24 February)

Event Time Altitude Azimuth Distance (km) Brightness Sun altitude
Exits shadow 06:01:48 - 241° (WSW) 2,065 3.9 -9.9°
Reaches altitude 10° 06:02:52 10° 245° (WSW) 1,637 3.3 -9.7°
Maximum altitude 06:06:21 45° 319° (NW) 656 1.3 -9.2°
Drops below altitude 10° 06:09:54 10° 34° (NE) 1,659 4.0 -8.7°
Sets 06:12:08 0° 41° (NE) 2,557 5.0 -8.4°
